SCP
0 0 0 0 0 0 0 0 0 0 0 0 0 0 0 0 0 0 0 0 0 0 0 0 0 0 0 0 0 0 0 0 0 0 0 0 0 0 0 0 0 0 0 0 0
0 0 0 0 0 0 0 0 0 0 0 0 0 0 0 0 0 0 0 0 0 0 0 0 0 0 0 0 0 0 0 0 0 0 0 0 0 0 0 0 0 0 0 0 0
0 0 0 0 0 0 0 0 0 0 0 0 0 0 0 0 0 0 0 0 0 0 0 0 0 0 0 0 0 0 0 0 0 0 0 0 0 0 0 0 0 0 0 0 0
0 0 0 0 0 0 0 0 0 0 0 0 0 0 0 0 0 0 0 0 0 0 0 0 0 0 0 0 0 0 0 0 0 0 0 0 0 0 0 0 0 0 0 0 0
0 0 0 0 0 0 0 0 0 0 0 0 0 0 0 0 0 0 0 0 0 0 0 0 0 0 0 0 0 0 0 0 0 0 0 0 0 0 0 0 0 0 0 0 0
0 0 0 0 0 0 0 0 0 0 0 0 0 0 0 0 0 0 0 0 0 0 0 0 0 0 0 0 0 0 0 0 0 0 0 0 0 0 0 0 0 0 0 0 0
0 0 0 0 0 0 0 0 0 0 0 0 0 0 0 0 0 0 0 0 0 0 0 0 0 0 0 0 0 0 0 0 0 0 0 0 0 0 0 0 0 0 0 0 0
0 0 0 0 0 0 0 0 0 0 0 0 0 0 0 0 0 0 0 0 0 0 0 0 0 0 0 0 0 0 0 0 0 0 0 0 0 0 0 0 0 0 0 0 0
0 0 0 0 0 0 0 0 0 0 0 0 0 0 0 0 0 0 0 0 0 0 0 0 0 0 0 0 0 0 0 0 0 0 0 0 0 0 0 0 0 0 0 0 0
0 0 0 0 0 0 0 0 0 0 0 0 0 0 0 0 0 0 0 0 0 0 0 0 0 0 0 0 0 0 0 0 0 0 0 0 0 0 0 0 0 0 0 0 0
0 0 0 0 0 0 0 0 0 0 0 0 0 0 0 0 0 0 0 0 0 0 0 0 0 0 0 0 0 0 0 0 0 0 0 0 0 0 0 0 0 0 0 0 0
0 0 0 0 0 0 0 0 0 0 0 0 0 0 0 0 0 0 0 0 0 0 0 0 0 0 0 0 0 0 0 0 0 0 0 0 0 0 0 0 0 0 0 0 0
0 0 0 0 0 0 0 0 0 0 0 0 0 0 0 0 0 0 0 0 0 0 0 0 0 0 0 0 0 0 0 0 0 0 0 0 0 0 0 0 0 0 0 0 0
0 0 0 0 0 0 0 0 0 0 0 0 0 0 0 0 0 0 0 0 0 0 0 0 0 0 0 0 0 0 0 0 0 0 0 0 0 0 0 0 0 0 0 0 0
0 0 0 0 0 0 0 0 0 0 0 0 0 0 0 0 0 0 0 0 0 0 0 0 0 0 0 0 0 0 0 0 0 0 0 0 0 0 0 0 0 0 0 0 0
0 0 0 0 0 0 0 0 0 0 0 0 0 0 0 0 0 0 0 0 0 0 0 0 0 0 0 0 0 0 0 0 0 0 0 0 0 0 0 0 0 0 0 0 0
0 0 0 0 0 0 0 0 0 0 0 0 0 0 0 0 0 0 0 0 0 0 0 0 0 0 0 0 0 0 0 0 0 0 0 0 0 0 0 0 0 0 0 0 0
0 0 0 0 0 0 0 0 0 0 0 0 0 0 0 0 0 0 0 0 0 0 0 0 0 0 0 0 0 0 0 0 0 0 0 0 0 0 0 0 0 0 0 0 0
0 0 0 0 0 0 0 0 0 0 0 0 0 0 0 0 0 0 0 0 0 0 0 0 0 0 0 0 0 0 0 0 0 0 0 0 0 0 0 0 0 0 0 0 0
0 0 0 0 0 0 0 0 0 0 0 0 0 0 0 0 0 0 0 0 0 0 0 0 0 0 0 0 0 0 0 0 0 0 0 0 0 0 0 0 0 0 0 0 0
0 0 0 0 0 0 0 0 0 0 0 0 0 0 0 0 0 0 0 0 0 0 0 0 0 0 0 0 0 0 0 0 0 0 0 0 0 0 0 0 0 0 0 0 0
0 0 0 0 0 0 0 0 0 0 0 0 0 0 0 0 0 0 0 0 0 0 0 0 0 0 0 0 0 0 0 0 0 0 0 0 0 0 0 0 0 0 0 0 0
0 0 0 0 0 0 0 0 0 0 0 0 0 0 0 0 0 0 0 0 0 0 0 0 0 0 0 0 0 0 0 0 0 0 0 0 0 0 0 0 0 0 0 0 0
0 0 0 0 0 0 0 0 0 0 0 0 0 0 0 0 0 0 0 0 0 0 0 0 0 0 0 0 0 0 0 0 0 0 0 0 0 0 0 0 0 0 0 0 0
0 0 0 0 0 0 0 0 0 0 0 0 0 0 0 0 0 0 0 0 0 0 0 0 0 0 0 0 0 0 0 0 0 0 0 0 0 0 0 0 0 0 0 0 0
0 0 0 0 0 0 0 0 0 0 0 0 0 0 0 0 0 0 0 0 0 0 0 0 0 0 0 0 0 0 0 0 0 0 0 0 0 0 0 0 0 0 0 0 0
0 0 0 0 0 0 0 0 0 0 0 0 0 0 0 0 0 0 0 0 0 0 0 0 0 0 0 0 0 0 0 0 0 0 0 0 0 0 0 0 0 0 0 0 0
Wind_Speed_500mb
8 8 8 7 7 7 8 8 9 10 12 13 15 17 20 20 22 24 21 10 7 9 10 9 7 2 2 7 7 5 8 3 7 12 5 3 7 3 9 4 6 9 11 13 17
15 14 13 12 12 12 12 12 13 13 15 17 18 20 22 24 25 25 10 6 4 6 8 9 8 6 4 4 4 8 7 11 7 8 5 2 3 12 2 13 5 4 17 18 20
19 18 17 17 16 16 17 17 17 18 19 21 21 23 23 23 23 4 2 6 8 8 10 9 10 4 5 3 4 4 7 6 3 10 5 2 5 1 4 5 6 15 19 9 2
23 23 22 21 20 21 21 22 22 22 23 24 24 23 21 17 4 1 5 7 6 7 8 8 3 2 5 4 2 2 3 6 3 3 2 5 5 4 4 3 8 5 12 14 12
27 27 26 25 24 24 25 26 27 27 25 25 24 23 21 13 14 17 13 13 11 10 13 12 7 5 6 7 5 4 3 6 11 18 18 15 9 1 13 10 11 8 7 12 15
32 31 30 29 29 28 29 29 28 28 27 26 25 24 21 14 18 19 18 19 19 17 17 15 6 8 7 5 7 4 6 16 18 23 17 9 6 9 8 5 5 5 10 11 12
38 36 35 35 34 32 30 29 28 29 30 29 26 24 27 36 21 17 18 18 18 18 18 17 13 9 11 6 2 0 7 13 9 9 8 14 8 8 6 3 9 11 10 10 11
41 41 38 37 35 35 32 31 31 31 30 27 25 23 20 25 26 31 33 27 19 19 17 15 15 11 5 11 8 4 8 6 3 4 2 7 6 3 7 7 11 11 10 10 10
37 38 38 38 36 34 33 30 30 29 30 26 22 17 18 23 24 30 27 24 23 19 16 16 19 9 11 11 7 10 6 8 14 3 3 4 5 4 12 12 17 13 11 10 10
38 36 37 36 36 35 31 28 27 28 30 27 28 13 29 16 15 19 25 23 18 25 21 15 9 7 5 8 11 12 8 8 10 1 5 3 8 11 14 15 19 16 16 15 16
41 38 36 34 33 33 27 23 20 16 31 23 13 12 5 22 18 21 29 29 23 18 11 10 8 18 25 19 7 11 9 11 5 4 3 11 9 6 11 18 17 18 19 23 26
46 42 38 35 35 34 30 19 18 7 16 30 45 44 29 20 15 27 35 27 18 10 15 7 15 17 10 10 9 8 9 12 8 6 8 8 12 4 9 6 9 19 23 28 33
51 45 41 37 36 39 40 35 27 17 10 18 44 46 56 49 28 38 47 25 11 13 17 16 7 24 14 10 12 10 13 9 13 2 3 2 10 7 5 14 16 19 25 28 33
52 50 48 44 39 47 47 25 31 5 7 12 14 14 27 30 15 34 53 20 8 22 17 11 6 13 9 11 14 11 17 14 10 8 8 4 9 9 10 10 13 22 26 30 34
52 54 60 61 40 36 30 33 25 16 12 2 9 13 24 23 19 7 37 17 16 15 14 13 16 9 9 14 14 11 12 14 8 8 4 5 1 9 10 13 14 29 32 34 36
46 55 60 64 63 45 30 34 46 9 24 9 10 11 12 5 5 10 11 8 10 9 2 8 3 13 15 4 11 18 13 12 8 6 2 12 11 7 11 12 18 31 46 46 46
51 58 53 70 75 58 41 58 11 13 0 12 11 12 8 10 7 8 12 11 13 10 12 4 8 7 10 12 6 2 11 3 3 1 10 1 4 14 11 11 33 51 62 56 49
65 54 60 62 71 67 62 11 13 13 14 8 8 11 13 13 6 9 13 12 11 6 6 14 8 20 13 13 16 14 14 10 14 8 5 2 12 10 3 4 17 58 70 62 57
53 60 63 62 83 80 57 24 17 12 13 19 7 8 8 8 11 8 16 15 19 22 15 12 9 1 5 7 10 11 11 5 13 5 4 9 9 4 3 2 22 51 66 69 64
52 56 68 63 69 76 23 33 13 12 14 10 22 14 19 16 13 15 20 12 13 27 11 13 7 2 5 9 8 9 13 7 5 4 8 9 9 11 14 20 13 29 59 75 70
42 34 40 43 54 39 20 16 22 23 18 16 23 19 14 18 23 15 17 6 16 18 25 11 7 4 8 14 19 6 6 8 9 6 10 4 10 11 16 24 33 45 61 81 80
44 17 32 31 24 7 13 14 16 17 22 6 5 11 18 19 17 20 34 21 42 41 29 17 9 8 14 4 3 5 15 15 10 11 6 5 14 6 4 24 44 51 71 82 83
36 37 30 49 15 22 8 9 16 13 14 13 16 16 8 17 7 13 12 5 38 29 36 22 8 4 8 5 4 11 11 7 10 7 16 11 10 2 4 17 42 49 65 82 83
27 11 28 35 42 10 18 22 21 35 20 20 13 12 8 17 19 12 16 6 9 11 9 33 10 19 27 12 14 12 14 13 14 7 15 26 23 11 13 18 33 52 59 75 85
36 10 16 9 26 26 29 13 25 18 20 35 15 31 29 21 25 22 14 5 4 10 5 8 16 15 4 8 9 12 14 24 27 40 22 30 28 17 24 24 46 55 58 65 77
11 11 12 4 2 21 40 11 22 36 21 20 20 32 42 25 29 21 16 12 12 3 14 5 5 8 8 7 5 7 12 21 33 29 32 17 30 12 36 31 28 43 52 63 72
16 16 13 11 10 6 11 20 16 15 7 9 16 35 26 33 24 15 12 17 11 14 16 16 12 10 14 8 11 9 21 30 10 12 22 25 29 12 9 20 41 41 43 53 66
Wind_Direction_500mb
270 268 273 274 273 277 286 294 300 309 314 315 319 320 319 320 318 315 314 300 276 242 229 227 223 228 55 69 62 97 64 163 211 162 197 32 46 92 328 317 8 51 41 328 305
273 274 276 275 279 281 284 289 295 300 302 306 312 313 316 318 319 310 281 261 223 201 193 174 161 123 81 65 46 80 103 217 187 203 170 35 38 334 342 336 54 351 310 290 271
264 267 268 274 276 280 284 287 291 294 297 301 305 308 314 320 325 332 158 150 133 140 145 151 148 43 82 58 29 114 171 203 232 227 261 191 301 120 320 59 101 312 327 4 334
254 259 264 268 272 277 282 284 287 289 292 296 300 303 309 315 314 275 191 185 168 168 183 185 202 60 89 102 141 58 247 226 264 173 282 272 302 5 338 49 324 85 68 61 73
254 254 258 261 266 272 277 281 283 285 287 290 294 298 303 286 257 260 248 229 227 237 232 225 228 169 148 146 146 149 281 264 279 282 281 266 265 291 30 104 115 84 56 42 45
251 257 260 263 266 271 275 278 281 283 284 286 290 292 289 258 255 250 247 241 244 244 232 219 200 180 133 143 169 172 259 281 283 270 269 214 127 165 81 112 117 86 51 33 22
255 254 258 262 265 268 270 273 274 276 281 285 288 288 277 266 253 239 240 237 234 229 224 215 203 187 154 127 164 245 321 318 257 266 224 146 82 82 70 151 70 56 45 24 10
257 260 258 259 261 264 266 269 272 273 276 280 283 285 263 258 244 242 242 240 227 215 210 197 192 168 161 126 39 54 51 356 277 176 317 170 234 147 25 189 69 51 44 31 19
252 256 259 260 260 259 261 264 267 272 274 273 275 259 260 248 238 235 228 221 211 201 185 177 167 149 137 101 12 6 232 207 313 194 121 165 179 63 93 99 85 65 51 47 50
251 252 252 255 258 259 260 262 267 270 267 268 256 262 233 225 209 211 208 200 180 174 149 162 144 98 60 117 217 193 212 239 237 332 129 192 252 130 74 88 89 81 77 72 68
249 250 250 251 253 253 252 260 266 264 233 219 184 213 241 211 205 195 191 182 159 166 155 157 134 206 193 195 139 142 177 206 244 251 155 227 253 35 71 75 91 92 93 91 86
247 247 248 248 247 247 242 223 220 238 294 254 246 244 240 212 199 196 185 176 175 168 119 70 226 208 129 156 167 153 165 234 281 233 165 259 252 106 51 73 123 125 117 111 108
244 243 244 245 244 244 241 235 241 267 264 257 238 239 236 226 225 204 189 187 158 143 190 172 216 151 152 156 171 200 195 192 213 43 193 306 266 195 64 120 135 141 135 128 121
236 242 238 233 240 244 243 231 225 238 277 251 216 224 201 200 229 210 198 177 176 180 161 228 221 162 166 195 161 201 201 177 166 129 225 157 271 235 181 166 175 168 157 145 138
248 240 244 232 230 221 242 216 182 154 274 126 157 163 159 176 136 165 182 194 160 163 141 226 165 161 183 211 166 230 134 157 142 157 116 229 209 252 131 212 197 195 175 163 152
264 254 243 223 220 224 213 177 149 126 234 209 141 158 128 141 107 109 154 146 135 108 343 213 173 160 191 124 158 149 86 54 58 98 254 229 193 237 196 198 177 194 187 177 168
257 258 244 226 219 214 184 156 168 201 205 193 184 168 145 151 138 142 161 164 159 133 216 169 217 180 144 93 65 110 109 77 2 323 227 58 174 248 205 184 183 184 189 183 177
252 257 264 251 232 215 182 188 203 197 199 89 109 108 169 155 190 148 136 185 238 138 125 170 238 169 187 178 175 185 170 165 202 197 232 21 228 257 81 169 187 189 184 183 183
258 262 268 260 229 216 181 214 209 179 165 138 100 120 224 200 144 150 193 196 195 181 190 166 265 95 103 138 145 187 205 152 103 45 41 216 278 271 177 194 183 184 188 189 189
247 256 256 259 230 203 201 220 222 208 133 154 184 164 180 186 156 188 176 202 206 186 188 214 124 250 163 106 44 165 156 86 1 175 254 269 258 231 212 209 184 187 192 194 193
234 247 259 254 234 200 220 210 208 207 187 174 209 182 197 172 187 196 200 255 204 187 170 158 134 200 130 207 173 148 172 72 123 151 185 263 252 216 206 186 190 199 196 196 198
215 225 245 219 197 251 209 175 186 193 215 225 223 182 180 175 196 215 203 206 188 153 177 195 132 167 206 303 284 208 179 157 151 218 244 157 254 30 250 184 185 195 200 202 202
212 235 239 205 219 222 160 195 194 164 191 187 208 209 170 181 185 212 210 236 173 170 169 175 179 106 358 335 319 220 204 156 104 90 190 168 257 61 173 167 197 195 201 204 206
201 216 216 216 224 247 225 218 214 211 210 185 178 150 141 205 208 214 223 194 202 207 199 160 152 190 218 188 139 196 197 176 169 152 203 230 242 203 207 187 200 206 207 208 210
206 236 194 204 218 224 232 228 214 200 212 203 194 198 198 210 204 218 192 171 213 186 109 126 207 202 206 138 143 191 182 175 199 222 209 246 224 196 197 203 206 209 209 210 214
216 178 174 173 351 214 228 241 219 216 179 207 217 205 212 211 195 196 178 192 190 158 157 136 212 149 155 111 150 234 216 181 211 225 238 253 253 176 205 203 194 212 211 212 217
216 217 200 168 156 183 213 200 209 212 217 112 240 219 210 220 226 154 137 144 172 169 163 167 153 163 215 138 130 258 223 206 177 196 205 222 244 162 193 208 214 215 214 222 225
Wind_Speed_850mb
8 8 8 7 7 7 8 8 9 10 12 13 15 17 20 20 22 24 21 10 7 9 10 9 7 2 2 7 7 5 8 3 7 12 5 3 7 3 9 4 6 9 11 13 17
15 14 13 12 12 12 12 12 13 13 15 17 18 20 22 24 25 25 10 6 4 6 8 9 8 6 4 4 4 8 7 11 7 8 5 2 3 12 2 13 5 4 17 18 20
19 18 17 17 16 16 17 17 17 18 19 21 21 23 23 23 23 4 2 6 8 8 10 9 10 4 5 3 4 4 7 6 3 10 5 2 5 1 4 5 6 15 19 9 2
23 23 22 21 20 21 21 22 22 22 23 24 24 23 21 17 4 1 5 7 6 7 8 8 3 2 5 4 2 2 3 6 3 3 2 5 5 4 4 3 8 5 12 14 12
27 27 26 25 24 24 25 26 27 27 25 25 24 23 21 13 14 17 13 13 11 10 13 12 7 5 6 7 5 4 3 6 11 18 18 15 9 1 13 10 11 8 7 12 15
32 31 30 29 29 28 29 29 28 28 27 26 25 24 21 14 18 19 18 19 19 17 17 15 6 8 7 5 7 4 6 16 18 23 17 9 6 9 8 5 5 5 10 11 12
38 36 35 35 34 32 30 29 28 29 30 29 26 24 27 36 21 17 18 18 18 18 18 17 13 9 11 6 2 0 7 13 9 9 8 14 8 8 6 3 9 11 10 10 11
41 41 38 37 35 35 32 31 31 31 30 27 25 23 20 25 26 31 33 27 19 19 17 15 15 11 5 11 8 4 8 6 3 4 2 7 6 3 7 7 11 11 10 10 10
37 38 38 38 36 34 33 30 30 29 30 26 22 17 18 23 24 30 27 24 23 19 16 16 19 9 11 11 7 10 6 8 14 3 3 4 5 4 12 12 17 13 11 10 10
38 36 37 36 36 35 31 28 27 28 30 27 28 13 29 16 15 19 25 23 18 25 21 15 9 7 5 8 11 12 8 8 10 1 5 3 8 11 14 15 19 16 16 15 16
41 38 36 34 33 33 27 23 20 16 31 23 13 12 5 22 18 21 29 29 23 18 11 10 8 18 25 19 7 11 9 11 5 4 3 11 9 6 11 18 17 18 19 23 26
46 42 38 35 35 34 30 19 18 7 16 30 45 44 29 20 15 27 35 27 18 10 15 7 15 17 10 10 9 8 9 12 8 6 8 8 12 4 9 6 9 19 23 28 33
51 45 41 37 36 39 40 35 27 17 10 18 44 46 56 49 28 38 47 25 11 13 17 16 7 24 14 10 12 10 13 9 13 2 3 2 10 7 5 14 16 19 25 28 33
52 50 48 44 39 47 47 25 31 5 7 12 14 14 27 30 15 34 53 20 8 22 17 11 6 13 9 11 14 11 17 14 10 8 8 4 9 9 10 10 13 22 26 30 34
52 54 60 61 40 36 30 33 25 16 12 2 9 13 24 23 19 7 37 17 16 15 14 13 16 9 9 14 14 11 12 14 8 8 4 5 1 9 10 13 14 29 32 34 36
46 55 60 64 63 45 30 34 46 9 24 9 10 11 12 5 5 10 11 8 10 9 2 8 3 13 15 4 11 18 13 12 8 6 2 12 11 7 11 12 18 31 46 46 46
51 58 53 70 75 58 41 58 11 13 0 12 11 12 8 10 7 8 12 11 13 10 12 4 8 7 10 12 6 2 11 3 3 1 10 1 4 14 11 11 33 51 62 56 49
65 54 60 62 71 67 62 11 13 13 14 8 8 11 13 13 6 9 13 12 11 6 6 14 8 20 13 13 16 14 14 10 14 8 5 2 12 10 3 4 17 58 70 62 57
53 60 63 62 83 80 57 24 17 12 13 19 7 8 8 8 11 8 16 15 19 22 15 12 9 1 5 7 10 11 11 5 13 5 4 9 9 4 3 2 22 51 66 69 64
52 56 68 63 69 76 23 33 13 12 14 10 22 14 19 16 13 15 20 12 13 27 11 13 7 2 5 9 8 9 13 7 5 4 8 9 9 11 14 20 13 29 59 75 70
42 34 40 43 54 39 20 16 22 23 18 16 23 19 14 18 23 15 17 6 16 18 25 11 7 4 8 14 19 6 6 8 9 6 10 4 10 11 16 24 33 45 61 81 80
44 17 32 31 24 7 13 14 16 17 22 6 5 11 18 19 17 20 34 21 42 41 29 17 9 8 14 4 3 5 15 15 10 11 6 5 14 6 4 24 44 51 71 82 83
36 37 30 49 15 22 8 9 16 13 14 13 16 16 8 17 7 13 12 5 38 29 36 22 8 4 8 5 4 11 11 7 10 7 16 11 10 2 4 17 42 49 65 82 83
27 11 28 35 42 10 18 22 21 35 20 20 13 12 8 17 19 12 16 6 9 11 9 33 10 19 27 12 14 12 14 13 14 7 15 26 23 11 13 18 33 52 59 75 85
36 10 16 9 26 26 29 13 25 18 20 35 15 31 29 21 25 22 14 5 4 10 5 8 16 15 4 8 9 12 14 24 27 40 22 30 28 17 24 24 46 55 58 65 77
11 11 12 4 2 21 40 11 22 36 21 20 20 32 42 25 29 21 16 12 12 3 14 5 5 8 8 7 5 7 12 21 33 29 32 17 30 12 36 31 28 43 52 63 72
16 16 13 11 10 6 11 20 16 15 7 9 16 35 26 33 24 15 12 17 11 14 16 16 12 10 14 8 11 9 21 30 10 12 22 25 29 12 9 20 41 41 43 53 66
Wind_Direction_850mb
270 268 273 274 273 277 286 294 300 309 314 315 319 320 319 320 318 315 314 300 276 242 229 227 223 228 55 69 62 97 64 163 211 162 197 32 46 92 328 317 8 51 41 328 305
273 274 276 275 279 281 284 289 295 300 302 306 312 313 316 318 319 310 281 261 223 201 193 174 161 123 81 65 46 80 103 217 187 203 170 35 38 334 342 336 54 351 310 290 271
264 267 268 274 276 280 284 287 291 294 297 301 305 308 314 320 325 332 158 150 133 140 145 151 148 43 82 58 29 114 171 203 232 227 261 191 301 120 320 59 101 312 327 4 334
254 259 264 268 272 277 282 284 287 289 292 296 300 303 309 315 314 275 191 185 168 168 183 185 202 60 89 102 141 58 247 226 264 173 282 272 302 5 338 49 324 85 68 61 73
254 254 258 261 266 272 277 281 283 285 287 290 294 298 303 286 257 260 248 229 227 237 232 225 228 169 148 146 146 149 281 264 279 282 281 266 265 291 30 104 115 84 56 42 45
251 257 260 263 266 271 275 278 281 283 284 286 290 292 289 258 255 250 247 241 244 244 232 219 200 180 133 143 169 172 259 281 283 270 269 214 127 165 81 112 117 86 51 33 22
255 254 258 262 265 268 270 273 274 276 281 285 288 288 277 266 253 239 240 237 234 229 224 215 203 187 154 127 164 245 321 318 257 266 224 146 82 82 70 151 70 56 45 24 10
257 260 258 259 261 264 266 269 272 273 276 280 283 285 263 258 244 242 242 240 227 215 210 197 192 168 161 126 39 54 51 356 277 176 317 170 234 147 25 189 69 51 44 31 19
252 256 259 260 260 259 261 264 267 272 274 273 275 259 260 248 238 235 228 221 211 201 185 177 167 149 137 101 12 6 232 207 313 194 121 165 179 63 93 99 85 65 51 47 50
251 252 252 255 258 259 260 262 267 270 267 268 256 262 233 225 209 211 208 200 180 174 149 162 144 98 60 117 217 193 212 239 237 332 129 192 252 130 74 88 89 81 77 72 68
249 250 250 251 253 253 252 260 266 264 233 219 184 213 241 211 205 195 191 182 159 166 155 157 134 206 193 195 139 142 177 206 244 251 155 227 253 35 71 75 91 92 93 91 86
247 247 248 248 247 247 242 223 220 238 294 254 246 244 240 212 199 196 185 176 175 168 119 70 226 208 129 156 167 153 165 234 281 233 165 259 252 106 51 73 123 125 117 111 108
244 243 244 245 244 244 241 235 241 267 264 257 238 239 236 226 225 204 189 187 158 143 190 172 216 151 152 156 171 200 195 192 213 43 193 306 266 195 64 120 135 141 135 128 121
236 242 238 233 240 244 243 231 225 238 277 251 216 224 201 200 229 210 198 177 176 180 161 228 221 162 166 195 161 201 201 177 166 129 225 157 271 235 181 166 175 168 157 145 138
248 240 244 232 230 221 242 216 182 154 274 126 157 163 159 176 136 165 182 194 160 163 141 226 165 161 183 211 166 230 134 157 142 157 116 229 209 252 131 212 197 195 175 163 152
264 254 243 223 220 224 213 177 149 126 234 209 141 158 128 141 107 109 154 146 135 108 343 213 173 160 191 124 158 149 86 54 58 98 254 229 193 237 196 198 177 194 187 177 168
257 258 244 226 219 214 184 156 168 201 205 193 184 168 145 151 138 142 161 164 159 133 216 169 217 180 144 93 65 110 109 77 2 323 227 58 174 248 205 184 183 184 189 183 177
252 257 264 251 232 215 182 188 203 197 199 89 109 108 169 155 190 148 136 185 238 138 125 170 238 169 187 178 175 185 170 165 202 197 232 21 228 257 81 169 187 189 184 183 183
258 262 268 260 229 216 181 214 209 179 165 138 100 120 224 200 144 150 193 196 195 181 190 166 265 95 103 138 145 187 205 152 103 45 41 216 278 271 177 194 183 184 188 189 189
247 256 256 259 230 203 201 220 222 208 133 154 184 164 180 186 156 188 176 202 206 186 188 214 124 250 163 106 44 165 156 86 1 175 254 269 258 231 212 209 184 187 192 194 193
234 247 259 254 234 200 220 210 208 207 187 174 209 182 197 172 187 196 200 255 204 187 170 158 134 200 130 207 173 148 172 72 123 151 185 263 252 216 206 186 190 199 196 196 198
215 225 245 219 197 251 209 175 186 193 215 225 223 182 180 175 196 215 203 206 188 153 177 195 132 167 206 303 284 208 179 157 151 218 244 157 254 30 250 184 185 195 200 202 202
212 235 239 205 219 222 160 195 194 164 191 187 208 209 170 181 185 212 210 236 173 170 169 175 179 106 358 335 319 220 204 156 104 90 190 168 257 61 173 167 197 195 201 204 206
201 216 216 216 224 247 225 218 214 211 210 185 178 150 141 205 208 214 223 194 202 207 199 160 152 190 218 188 139 196 197 176 169 152 203 230 242 203 207 187 200 206 207 208 210
206 236 194 204 218 224 232 228 214 200 212 203 194 198 198 210 204 218 192 171 213 186 109 126 207 202 206 138 143 191 182 175 199 222 209 246 224 196 197 203 206 209 209 210 214
216 178 174 173 351 214 228 241 219 216 179 207 217 205 212 211 195 196 178 192 190 158 157 136 212 149 155 111 150 234 216 181 211 225 238 253 253 176 205 203 194 212 211 212 217
216 217 200 168 156 183 213 200 209 212 217 112 240 219 210 220 226 154 137 144 172 169 163 167 153 163 215 138 130 258 223 206 177 196 205 222 244 162 193 208 214 215 214 222 225